Regional Weather Roundup
Issued by NWS

Home | Current Version | Previous Version | Text Only | Print | Product List | Glossary Off
Versions: 1 2 3 4 5 6 7 8 9 10 11 12 13 14 15 16 17 18 19 20 21 22 23 24 25 26 27 28 29 30 31 32 33 34 35 36 37 38 39 40 41 42 43 44 45 46 47 48 49 50

000
ASUS43 KMPX 300310
RWRMN
WEATHER ROUNDUP FOR MINNESOTA
NATIONAL WEATHER SERVICE TWIN CITIES/CHANHASSEN MN
1000 PM CDT THU SEP 29 2016


NOTE: "FAIR" INDICATES FEW OR NO CLOUDS BELOW 12,000 FEET WITH NO
SIGNIFICANT WEATHER AND/OR OBSTRUCTIONS TO VISIBILITY. N/A MEANS
CURRENT SKY AND/OR WEATHER CONDITIONS ARE NOT AVAILABLE.

MNZ060>063-068>070-300400-
   Twin Cities Metro

CITY           SKY/WX    TMP DP  RH WIND       PRES   REMARKS
TWIN CITIES    CLEAR     58  50  75 NE5       30.39S
ST PAUL        CLEAR     58  51  78 CALM      30.40S
CRYSTAL        CLEAR     51  47  86 CALM      30.39R
BLAINE         CLEAR     55  52  88 NE3       30.40S
LAKEVILLE      CLEAR     52  48  87 CALM      30.39S
EDEN PRAIRIE   CLEAR     57  50  77 NE5       30.38S
LAKEVILLE      CLEAR     52  48  87 CALM      30.39S
SOUTH ST PAUL  CLEAR     59  51  75 CALM      30.39S
LAKE ELMO      FAIR      52  50  93 NE3       30.41S
$$
MNZ001>005-007-008-013>017-022>024-027-028-300400-
   Northwest Minnesota

CITY           SKY/WX    TMP DP  RH WIND       PRES   REMARKS
BEMIDJI        CLOUDY    55  49  81 E6        30.43S
HALLOCK        CLEAR     54  48  82 SE10      30.37S
ROSEAU         CLEAR     52  46  82 SE6       30.41S HAZE
WARROAD        CLEAR     52  46  82 SE6       30.43S
THIEF RVR FALL CLEAR     50  45  83 SE8       30.41S
CROOKSTON      CLEAR     52  46  82 SE8       30.40R
FOSSTON        CLEAR     45  39  81 SE5       30.42S
DETROIT LAKES  CLEAR     52  45  76 SE6       30.42R
MOORHEAD       CLEAR     52  45  76 E6        30.39S
PARK RAPIDS    CLOUDY    55  46  71 E7        30.42S
MAHNOMEN       FAIR      50  44  81 SE7       30.41S
$$
MNZ006-009>011-018-025>026-300400-
   North Central Minnesota

CITY           SKY/WX    TMP DP  RH WIND       PRES   REMARKS
BAUDETTE       CLOUDY    54  46  74 SE7       30.44S
FLAG ISLAND    CLEAR     57  48  72 SE12      30.41S
INTL FALLS     CLOUDY    53  47  79 SE6       30.46S
WASKISH        CLOUDY    54  48  82 SE3       30.44S
BIG FORK       CLOUDY    54  48  82 CALM      30.46S
LONGVILLE      CLEAR     45  43  93 CALM      30.43F
GRAND RAPIDS   PTCLDY    50  47  89 SE3       30.47S
ORR            CLOUDY    52  46  82 CALM      30.45S
COOK           CLOUDY    52  48  87 CALM      30.48S
WALKER         CLOUDY    54  48  79 CALM      30.43S
$$
MNZ012-019>021-037-300400-
   Northeast Minnesota

CITY           SKY/WX    TMP DP  RH WIND       PRES   REMARKS
DULUTH         CLEAR     50  49  96 E8        30.46S
ELY            CLEAR     50  46  87 CALM      30.48S
HIBBING        CLEAR     45  44  97 CALM      30.46S
EVELETH        CLEAR     47  45  95 CALM      30.48S
DULUTH HARBOR  CLOUDY    55  52  88 E13       30.48R
TWO HARBORS    MOCLDY    52  46  82 NE5       30.46S
SILVER BAY     CLOUDY    46  46 100 CALM      30.47R
GRAND MARAIS     N/A     49  47  93 CALM      30.49S
G MARAIS ARPRT CLEAR     43  39  87 CALM      30.50S FOG
$$
MNZ029>031-032-039>041-046>048-054>057-064-300400-
   West Central Minnesota

CITY           SKY/WX    TMP DP  RH WIND       PRES   REMARKS
FERGUS FALLS   CLEAR     54  46  76 E7        30.42R
MORRIS         CLEAR     50  46  87 E7        30.38S
ALEXANDRIA     CLEAR     50  47  89 E6        30.41S
ELBOW LAKE     FAIR      52  47  85 SE7       30.40S
WADENA         CLEAR     48  45  87 E5        30.41S
GLENWOOD       CLEAR     48  45  87 NE6       30.40S
BENSON         CLEAR     52  46  82 SE5       30.39S
ORTONVILLE     CLEAR     52  46  82 CALM      30.37S
MADISON        CLEAR     54  48  82 CALM      30.38R
WILLMAR        FAIR      52  48  87 E3        30.41R
$$
MNZ033>034-036-042>043-049>051-058-059-300400-
   Central Minnesota

CITY           SKY/WX    TMP DP  RH WIND       PRES   REMARKS
ST CLOUD       CLEAR     53  50  89 NE5       30.40S
SAUK CENTRE    FAIR      51  48  88 E7        30.40S
PAYNESVILLE    CLEAR     47  48 100 CALM      30.40S
AITKIN         CLEAR     50  45  81 E3        30.43S
PINE RIVER     CLEAR     45  45 100 CALM      30.45S
BRAINERD       CLEAR     50  47  89 E3        30.43S
STAPLES        CLEAR     48  46  93 CALM      30.42S
LONG PRAIRIE   FAIR      46  45  93 CALM      30.41S
LITTLE FALLS   CLEAR     52  46  82 E5        30.42R
LITCHFIELD     CLEAR     52  52 100 CALM      30.40S
BUFFALO        CLEAR     50  46  88 CALM      30.41S
MAPLE LAKE     CLEAR     48  48  97 CALM      30.41S
HUTCHINSON     CLEAR     50  49  97 CALM      30.40S
$$
MNZ037-044-045-052-053-300400-
   East Central Minnesota

CITY           SKY/WX    TMP DP  RH WIND       PRES   REMARKS
PRINCETON      CLEAR     54  52  94 NE5       30.41S
MORA           CLEAR     50  46  87 NE3       30.44S
CAMBRIDGE      CLEAR     55  48  76 CALM      30.39F
MOOSE LAKE     CLOUDY    50  48  93 NE6       30.43S
HINCKLEY       FAIR      50  48  93 CALM      30.43S
CLOQUET        PTCLDY    50  46  87 E6        30.46R
MCGREGOR       CLEAR     46  45  93 CALM      30.45S
$$
MNZ071>073-080-081-089-090-097-098-300400-
   Southwest Minnesota

CITY           SKY/WX    TMP DP  RH WIND       PRES   REMARKS
MONTEVIDEO     CLEAR     48  45  87 SE5       30.40R
GRANITE FALLS  CLEAR     56  49  78 E5        30.40R
CANBY          CLEAR     49  47  92 CALM      30.39R
MARSHALL       CLEAR     51  47  86 CALM      30.38R
REDWOOD FALLS  CLEAR     55  47  74 E6        30.38S
OLIVIA         CLEAR     54  48  82 CALM      30.38S
PIPESTONE      CLEAR     54  46  76 CALM      30.37S
WINDOM         CLEAR     52  46  82 CALM      30.38S
WORTHINGTON    CLEAR     49  46  90 E5        30.38S
JACKSON        CLEAR     46  43  87 CALM      30.38S
TRACY          CLEAR     53  48  83 SE5       30.38S
SLAYTON        PTCLDY    52  46  82 E6        30.38S
$$
MNZ065>067-074>077-082>085-091>093-300400-
   South Central Minnesota

CITY           SKY/WX    TMP DP  RH WIND       PRES   REMARKS
MANKATO        CLEAR     56  50  80 NE3       30.39R
NEW ULM        CLEAR     55  48  76 CALM      30.38S
ST JAMES       CLEAR     52  48  87 CALM      30.39S
FAIRMONT       CLEAR     52  47  83 CALM      30.38S
GLENCOE        CLEAR     51  50  97 CALM      30.39R
FARIBAULT      CLEAR     48  46  93 CALM      30.39S
OWATONNA       CLEAR     55  48  76 NE3       30.38S
WASECA         CLEAR     52  46  82 NE5       30.39S
ALBERT LEA     CLEAR     54  48  82 NE3       30.37S
$$
MNZ078>079-086>088-094>096-300400-
   Southeast Minnesota

CITY           SKY/WX    TMP DP  RH WIND       PRES   REMARKS
ROCHESTER      CLEAR     55  50  83 NE7       30.39S
RED WING       CLEAR     54  50  87 CALM      30.37S
STANTON        CLEAR     50  48  93 CALM      30.38S
DODGE CENTER   PTCLDY    52  48  87 N5        30.38S
WINONA         CLEAR     55  52  88 NW5       30.36F
AUSTIN         CLEAR     54  48  82 CALM      30.37S
PRESTON        CLEAR     57  49  76 N6        30.37S
$$
ABBREVIATIONS USED IN REMARKS
   TC - TEMPERATURES IN CELSIUS
  WCI - WIND CHILL INDEX
   HX - HEAT INDEX
  VSB - VISIBILITY
$$




USA.gov is the U.S. government's official web portal to all federal, state and local government web resources and services.